Stations météo

réclame
Mon MeteoGroup
Antwerpen, Belgique (6450): Température de l'air & dewpoint: 17.07.2018 09:00:00 - 23.07.2018 09:00:00 (CEST)Antwerpen, Belgique (6450): Vitesse du vent & gusts: 17.07.2018 09:00:00 - 23.07.2018 09:00:00 (CEST)Antwerpen, Belgique (6450): Direction du vent: 17.07.2018 09:00:00 - 23.07.2018 09:00:00 (CEST)Antwerpen, Belgique (6450): reduced air pressure: 17.07.2018 09:00:00 - 23.07.2018 09:00:00 (CEST)Antwerpen, Belgique (6450): visibility: 17.07.2018 09:00:00 - 23.07.2018 09:00:00 (CEST)
Date & Time tt [°C] td [°C] ff [km/h] ff [knt] fx [km/h] fx [knt] dd ppp [hPa] vv [km]
23.07.2018 09:00:00 22,8 14,5 8 4 14 8 WSW 1017,5 10
23.07.2018 08:00:00 21,6 14,2 9 5 - - W 1017,5 10
23.07.2018 07:00:00 20,8 14,5 5 3 11 6 SW 1017,3 10
23.07.2018 06:00:00 21,0 15,5 8 4 11 6 SW 1017,1 10
23.07.2018 05:00:00 19,7 16,4 4 2 - - SSE 1017,0 10
23.07.2018 04:00:00 19,9 16,2 5 3 7 4 SSE 1016,9 10
23.07.2018 03:00:00 20,5 15,4 5 3 4 2 S 1017,1 10
23.07.2018 02:00:00 20,3 15,2 4 2 - - S 1017,3 10
23.07.2018 01:00:00 21,8 13,6 4 2 7 4 S 1017,2 10
23.07.2018 00:00:00 21,3 14,8 5 3 14 8 NE 1017,2 10
22.07.2018 23:00:00 22,2 14,6 7 4 - - N 1016,9 50
22.07.2018 22:00:00 23,3 13,8 13 7 22 12 N 1016,5 10
22.07.2018 21:00:00 24,1 13,6 15 8 22 12 N 1016,0 10
22.07.2018 20:00:00 24,6 13,4 13 7 - - NNW 1015,7 10
22.07.2018 19:00:00 25,8 13,1 18 10 29 16 NW 1015,6 10
22.07.2018 18:00:00 26,5 13,5 18 10 32 18 NW 1015,5 10
22.07.2018 17:00:00 27,1 13,5 18 10 - - NNW 1015,3 10
22.07.2018 16:00:00 26,9 14,1 15 8 29 16 NW 1015,4 10
22.07.2018 15:00:00 26,8 11,8 13 7 29 16 W 1015,3 10
22.07.2018 14:00:00 26,8 10,5 9 5 - - - 1015,7 10
22.07.2018 13:00:00 26,3 10,2 8 4 22 12 - 1015,8 10
22.07.2018 12:00:00 25,0 9,9 11 6 22 12 W 1016,0 10
22.07.2018 11:00:00 23,9 10,1 8 4 - - WSW 1016,0 10
22.07.2018 10:00:00 22,1 12,2 5 3 11 6 WSW 1015,9 10
22.07.2018 09:00:00 19,7 13,8 8 4 11 6 SW 1015,9 10
22.07.2018 08:00:00 17,8 14,3 5 3 - - SSW 1015,5 9
22.07.2018 07:00:00 16,3 13,5 5 3 11 6 WSW 1015,3 8
22.07.2018 06:00:00 16,2 13,2 8 4 11 6 W 1015,3 10
22.07.2018 05:00:00 16,6 12,7 8 4 - - W 1015,1 10
22.07.2018 04:00:00 17,1 12,5 9 5 11 6 W 1015,0 10
22.07.2018 03:00:00 17,7 11,9 8 4 7 4 W 1014,9 10
22.07.2018 02:00:00 18,4 11,2 4 2 - - WSW 1014,8 50
22.07.2018 01:00:00 19,6 8,1 11 6 18 10 NNW 1014,7 10
22.07.2018 00:00:00 19,7 9,7 13 7 18 10 NNW 1014,6 10
21.07.2018 23:00:00 20,7 8,2 11 6 - - NNW 1014,5 10
21.07.2018 22:00:00 21,4 11,2 9 5 29 16 N 1014,1 10
21.07.2018 21:00:00 22,6 11,2 21 11 29 16 NW 1013,5 10
21.07.2018 20:00:00 24,0 10,8 22 12 - - NW 1013,0 10
21.07.2018 19:00:00 25,0 11,9 24 13 36 19 NW 1012,7 10
21.07.2018 18:00:00 26,1 12,4 26 14 36 19 WNW 1012,7 10
21.07.2018 17:00:00 26,3 11,8 26 14 - - NW 1012,7 10
21.07.2018 16:00:00 25,9 12,2 22 12 36 19 NW 1012,6 10
21.07.2018 15:00:00 25,7 13,0 21 11 32 18 WNW 1012,5 10
21.07.2018 14:00:00 25,8 13,0 18 10 - - NW 1012,5 10
21.07.2018 13:00:00 24,8 13,1 13 7 29 16 WNW 1012,5 10
21.07.2018 12:00:00 24,5 13,3 15 8 25 14 WNW 1012,2 10
21.07.2018 11:00:00 23,0 13,2 13 7 - - NW 1012,1 10
21.07.2018 10:00:00 22,0 14,6 11 6 18 10 NW 1012,5 10
21.07.2018 09:00:00 20,9 15,0 9 5 14 8 NNW 1012,3 10
21.07.2018 08:00:00 19,9 15,8 11 6 - - N 1011,9 10
21.07.2018 07:00:00 19,2 15,1 4 2 14 8 - 1011,6 10
21.07.2018 06:00:00 19,4 13,6 8 4 14 8 NNW 1011,2 10
21.07.2018 05:00:00 19,7 13,5 9 5 - - NW 1011,5 10
21.07.2018 04:00:00 19,8 13,5 5 3 11 6 N 1011,8 10
21.07.2018 03:00:00 19,7 13,8 2 1 14 8 - 1012,1 10
21.07.2018 02:00:00 20,1 13,8 9 5 - - N 1012,0 10
21.07.2018 01:00:00 20,3 14,0 8 4 14 8 NNW 1012,6 10
21.07.2018 00:00:00 20,6 13,6 8 4 18 10 NNW 1012,6 10
20.07.2018 23:00:00 20,8 12,2 9 5 - - N 1012,8 10
20.07.2018 22:00:00 21,4 12,3 8 4 22 12 NNW 1012,7 10
20.07.2018 21:00:00 21,7 12,1 15 8 25 14 N 1012,1 10
20.07.2018 20:00:00 22,1 12,0 13 7 - - NW 1012,8 10
20.07.2018 19:00:00 23,7 9,1 13 7 22 12 W 1013,0 10
20.07.2018 18:00:00 24,4 8,5 15 8 22 12 NW 1013,2 10
20.07.2018 17:00:00 24,5 8,6 15 8 - - NW 1013,6 10
20.07.2018 16:00:00 24,8 7,9 16 9 25 14 NW 1013,7 10
20.07.2018 15:00:00 26,3 8,9 15 8 29 16 WNW 1013,9 10
20.07.2018 14:00:00 26,2 7,3 13 7 - - NW 1014,3 10
20.07.2018 13:00:00 26,2 7,5 8 4 25 14 N 1014,7 10
20.07.2018 12:00:00 24,3 7,1 9 5 22 12 N 1015,0 10
20.07.2018 11:00:00 23,0 9,6 11 6 - - N 1015,1 10
20.07.2018 10:00:00 21,5 12,7 9 5 14 8 N 1015,4 10
20.07.2018 09:00:00 19,3 13,9 8 4 11 6 NNE 1015,6 10
20.07.2018 08:00:00 17,7 14,8 2 1 - - - 1015,8 10
20.07.2018 07:00:00 15,9 13,6 4 2 11 6 - 1015,7 10
20.07.2018 06:00:00 15,1 12,7 8 4 7 4 NNE 1015,9 10
20.07.2018 05:00:00 15,3 12,4 2 1 - - N 1016,3 10
20.07.2018 04:00:00 16,0 12,3 2 1 7 4 - 1016,5 10
20.07.2018 03:00:00 16,5 11,3 4 2 7 4 - 1016,8 10
20.07.2018 02:00:00 16,9 10,4 4 2 - - - 1017,2 10
20.07.2018 01:00:00 17,8 9,7 4 2 11 6 - 1017,3 10
20.07.2018 00:00:00 18,7 8,9 5 3 14 8 N 1017,4 10
19.07.2018 23:00:00 20,3 8,8 8 4 - - N 1017,6 10
19.07.2018 22:00:00 21,7 8,5 11 6 22 12 N 1017,5 10
19.07.2018 21:00:00 22,7 8,4 13 7 25 14 N 1017,4 10
19.07.2018 20:00:00 24,0 8,5 18 10 - - N 1017,1 10
19.07.2018 19:00:00 25,3 10,5 15 8 29 16 NW 1017,2 10
19.07.2018 18:00:00 25,6 11,5 11 6 25 14 NW 1017,5 10
19.07.2018 17:00:00 26,1 12,2 15 8 - - NNW 1017,9 10
19.07.2018 16:00:00 25,3 11,9 8 4 22 12 - 1018,3 10
19.07.2018 15:00:00 24,8 11,5 8 4 18 10 W 1018,4 10
19.07.2018 14:00:00 25,4 11,8 5 3 - - - 1018,5 10
19.07.2018 13:00:00 24,9 11,1 7 4 18 10 - 1018,9 35
19.07.2018 12:00:00 24,1 11,6 2 1 18 10 - 1019,0 10
19.07.2018 11:00:00 23,4 12,0 9 5 - - N 1019,2 10
19.07.2018 10:00:00 21,7 13,0 9 5 14 8 NNW 1019,4 10
19.07.2018 09:00:00 19,9 13,5 5 3 11 6 N 1019,5 10
19.07.2018 08:00:00 18,2 13,2 5 3 - - NNE 1019,4 10
19.07.2018 07:00:00 16,9 12,8 4 2 7 4 - 1019,2 10
19.07.2018 06:00:00 15,5 10,6 4 2 4 2 NNW 1019,0 10
19.07.2018 05:00:00 14,1 10,9 4 2 - - WNW 1019,2 10
19.07.2018 04:00:00 15,2 11,3 2 1 4 2 WNW 1019,3 10
19.07.2018 03:00:00 14,7 11,1 2 1 4 2 - 1019,4 10
19.07.2018 02:00:00 17,2 11,5 2 1 - - - 1019,5 10
19.07.2018 01:00:00 17,9 11,1 2 1 11 6 - 1019,4 10
19.07.2018 00:00:00 18,9 11,1 8 4 14 8 NNE 1019,4 10
18.07.2018 23:00:00 19,7 11,6 9 5 - - N 1019,3 10
18.07.2018 22:00:00 20,8 11,4 11 6 25 14 N 1019,0 10
18.07.2018 21:00:00 21,9 12,0 16 9 29 16 N 1018,8 10
18.07.2018 20:00:00 23,5 12,5 18 10 - - NNW 1018,4 10
18.07.2018 19:00:00 24,1 12,8 18 10 29 16 NW 1018,3 10
18.07.2018 18:00:00 24,6 9,9 11 6 22 12 NW 1018,4 10
18.07.2018 17:00:00 24,0 11,2 9 5 - - NW 1018,5 10
18.07.2018 16:00:00 24,4 10,8 5 3 18 10 NW 1018,7 10
18.07.2018 15:00:00 24,2 11,2 11 6 18 10 W 1018,9 10
18.07.2018 14:00:00 22,7 10,8 2 1 - - - 1019,0 10
18.07.2018 13:00:00 23,1 8,3 9 5 32 18 W 1019,3 10
18.07.2018 12:00:00 21,9 8,7 5 3 18 10 - 1019,3 10
18.07.2018 11:00:00 21,1 9,6 11 6 - - SSW 1019,5 10
18.07.2018 10:00:00 19,6 11,0 11 6 18 10 WSW 1019,5 10
18.07.2018 09:00:00 19,1 10,1 5 3 7 4 S 1019,3 10
18.07.2018 08:00:00 17,6 11,6 5 3 - - SSW 1019,2 10
18.07.2018 07:00:00 13,9 12,2 2 1 4 2 SE 1019,0 10
18.07.2018 06:00:00 12,4 11,2 2 1 4 2 ESE 1018,8 10
18.07.2018 05:00:00 13,4 11,5 0 0 - - N 1018,9 10
18.07.2018 04:00:00 13,3 11,6 4 2 7 4 SE 1018,9 10
18.07.2018 03:00:00 13,7 11,3 4 2 7 4 S 1018,8 10
18.07.2018 02:00:00 14,5 12,0 8 4 - - SE 1018,8 10
18.07.2018 01:00:00 16,1 13,2 5 3 7 4 SSE 1018,7 10
18.07.2018 00:00:00 19,1 11,2 5 3 11 6 NNW 1018,5 10
17.07.2018 23:00:00 18,8 11,1 4 2 - - - 1018,2 10
17.07.2018 22:00:00 20,0 10,7 8 4 22 12 N 1017,8 10
17.07.2018 21:00:00 21,5 9,0 15 8 29 16 NNW 1017,4 10
17.07.2018 20:00:00 22,2 9,1 18 10 - - NNW 1017,1 10
17.07.2018 19:00:00 22,7 9,2 24 13 43 23 NW 1016,9 10
17.07.2018 18:00:00 23,2 10,9 28 15 43 23 NW 1016,6 10
17.07.2018 17:00:00 23,0 12,4 21 11 - - NW 1016,5 10
17.07.2018 16:00:00 23,4 13,3 18 10 40 21 NW 1016,3 10
17.07.2018 15:00:00 25,7 11,1 22 12 40 21 WSW 1016,1 10
17.07.2018 14:00:00 24,8 12,2 16 9 - - W 1016,1 10
17.07.2018 13:00:00 23,6 15,1 11 6 29 16 W 1016,1 10
17.07.2018 12:00:00 22,2 14,8 13 7 25 14 W 1016,1 10
17.07.2018 11:00:00 21,5 15,2 13 7 - - WSW 1015,8 10
17.07.2018 10:00:00 20,0 14,8 11 6 22 12 W 1015,5 10
17.07.2018 09:00:00 18,6 13,6 11 6 25 14 W 1015,1 10

tt = Température de l'air
td = dewpoint
ff = Vitesse du vent
fx = gusts
dd = Direction du vent
ppp = reduced air pressure
vv = visibility

stations d'obs. à proximité